This demonstration page uses our WeatherBlox Daily Observations layout. Learn more.

Left ArrowRight Arrow

38.83388, -104.82136

Hourly Observations for November 25, 2020

Temp ( °F °C ) Dew Point ( °F °C ) Humidity (%) Winds ( mph kmh ) Pressure ( in mb ) Visibility ( mi km ) Precip ( " mm )
12:58 am 00:58 Clear 28 -2.5 19 -7.1 71 71 WNW 5 7 29.72 1006 10 16 0.00 0.00
1:58 am 01:58 Clear 29 -1.8 19 -7.4 66 66 NNW 5 7 29.71 1006 10 16 0.00 0.00
2:58 am 02:58 Clear 29 -1.9 16 -8.7 60 60 Calm 29.71 1006 10 16 0.00 0.00
3:58 am 03:58 Clear 28 -2.3 15 -9.7 57 57 WNW 5 7 29.71 1006 10 16 0.00 0.00
4:58 am 04:58 Clear 26 -3.3 14 -10.2 59 59 Calm 29.73 1007 10 16 0.00 0.00
5:58 am 05:58 Clear 26 -3.5 14 -10.2 60 60 Calm 29.73 1007 10 16 0.00 0.00
6:58 am 06:58 Sunny 29 -1.9 10 -12.2 46 46 Calm 29.72 1007 10 16 0.00 0.00
7:58 am 07:58 Sunny 37 2.6 13 -10.5 38 38 Calm 29.66 1004 10 16 0.00 0.00
8:58 am 08:58 Sunny 43 6.2 16 -8.8 34 34 Calm 29.65 1004 10 16 0.00 0.00
9:58 am 09:58 Sunny 45 7.4 23 -5.2 41 41 Calm 29.64 1004 10 16 0.00 0.00
10:58 am 10:58 Sunny 51 10.3 22 -5.7 32 32 Calm 29.59 1002 10 16 0.00 0.00
11:58 am 11:58 Sunny 47 8.6 22 -5.7 36 36 ESE 3 6 29.58 1002 10 16 0.00 0.00
12:58 pm 12:58 Sunny 49 9.3 26 -3.5 41 41 ESE 5 7 29.56 1001 10 16 0.00 0.00
1:58 pm 13:58 Sunny 46 8 25 -3.7 44 44 SE 8 13 29.55 1001 10 16 0.00 0.00
2:58 pm 14:58 Sunny 42 5.8 26 -3.5 52 52 SSE 3 6 29.56 1001 10 16 0.00 0.00
5:58 pm 17:58 Clear 36 2.4 19 -7 50 50 NW 6 9 29.61 1003 10 16 0.00 0.00
6:58 pm 18:58 Clear 36 2.3 16 -8.8 44 44 Calm 29.59 1002 10 16 0.00 0.00
7:58 pm 19:58 Clear 37 2.5 12 -10.9 37 37 W 3 6 29.54 1000 10 16 0.00 0.00
8:58 pm 20:58 Clear 39 3.8 9 -12.9 29 29 NW 6 9 29.50 999 10 16 0.00 0.00
9:58 pm 21:58 Clear 40 4.5 7 -13.7 26 26 Calm 29.49 999 10 16 0.00 0.00
10:58 pm 22:58 Clear 42 5.5 8 -13.5 24 24 Calm 29.47 998 10 16 0.00 0.00
11:58 pm 23:58 Clear 42 5.4 7 -14.1 23 23 Calm 29.49 999 10 16 0.00 0.00

Powered by AerisWeather